CFC1691 KORF-KDTW

Flight info

Callsign CFC1691
Flight time 1h 33m
Altitude 40000
Route NUTIY1 KELLE MOL TARCI JAMOX BONZZ2
Aircraft CL60/M-SADE3FGHIJ3J4J7P2RWXY/HB1D1

Departure

Time 2026-05-07 16:24
Airport Norfolk International Airport (KORF)

Arrival

Time 2026-05-07 17:57
Airport Detroit Metropolitan Wayne County Airport (KDTW)
Time Latitude Longitude Altitude Speed Heading
2026-05-07 16:14 36.88746 -76.20049 24 ft 0 kts 128°
2026-05-07 16:21 36.88743 -76.20045 24 ft 4 kts 128°
2026-05-07 16:22 36.88772 -76.20077 24 ft 11 kts
2026-05-07 16:22 36.88833 -76.20159 24 ft 19 kts 283°
2026-05-07 16:22 36.88868 -76.20365 24 ft 22 kts 245°
2026-05-07 16:22 36.88724 -76.20503 23 ft 29 kts 217°
2026-05-07 16:23 36.88554 -76.20670 19 ft 23 kts 230°
2026-05-07 16:23 36.88585 -76.20785 18 ft 15 kts 316°
2026-05-07 16:23 36.88649 -76.20777 19 ft 10 kts 45°
2026-05-07 16:23 36.88839 -76.20586 23 ft 79 kts 42°
2026-05-07 16:24 36.89531 -76.19921 92 ft 159 kts 39°
2026-05-07 16:24 36.90470 -76.19025 1020 ft 174 kts 37°
2026-05-07 16:24 36.91329 -76.18150 2431 ft 163 kts 41°
2026-05-07 16:24 36.92146 -76.17067 3228 ft 182 kts 48°
2026-05-07 16:25 36.93056 -76.15922 4192 ft 193 kts 40°
2026-05-07 16:25 36.94183 -76.14972 5113 ft 202 kts 13°
2026-05-07 16:25 36.95553 -76.15041 6025 ft 207 kts 332°
2026-05-07 16:25 36.96661 -76.16048 7178 ft 200 kts 300°
2026-05-07 16:26 36.97131 -76.17593 8309 ft 196 kts 269°
2026-05-07 16:26 36.96996 -76.19299 9412 ft 201 kts 258°
2026-05-07 16:26 36.96763 -76.20989 10608 ft 203 kts 258°
2026-05-07 16:26 36.96537 -76.22674 11867 ft 201 kts 259°
2026-05-07 16:27 36.96314 -76.24342 12962 ft 202 kts 260°
2026-05-07 16:27 36.96089 -76.26025 14135 ft 199 kts 259°
2026-05-07 16:27 36.95863 -76.27714 15041 ft 206 kts 260°
2026-05-07 16:27 36.95620 -76.29520 15796 ft 218 kts 260°
2026-05-07 16:28 36.95369 -76.31397 16650 ft 225 kts 259°
2026-05-07 16:28 36.95111 -76.33330 17563 ft 228 kts 260°
2026-05-07 16:28 36.94855 -76.35247 18476 ft 227 kts 259°
2026-05-07 16:28 36.94627 -76.37186 19369 ft 224 kts 263°
2026-05-07 16:29 36.94595 -76.39082 20202 ft 222 kts 265°
2026-05-07 16:29 36.94593 -76.40979 20997 ft 218 kts 264°
2026-05-07 16:29 36.94587 -76.42858 21747 ft 216 kts 264°
2026-05-07 16:29 36.94581 -76.44697 22453 ft 213 kts 264°
2026-05-07 16:30 36.94574 -76.46524 23141 ft 212 kts 262°
2026-05-07 16:30 36.94566 -76.48341 23828 ft 212 kts 262°
2026-05-07 16:30 36.94556 -76.50183 24546 ft 213 kts 263°
2026-05-07 16:30 36.94546 -76.52023 25282 ft 213 kts 263°
2026-05-07 16:31 36.94536 -76.53856 26014 ft 213 kts 263°
2026-05-07 16:31 36.94616 -76.55739 26541 ft 225 kts 271°
2026-05-07 16:31 36.94918 -76.57697 26963 ft 237 kts 271°
2026-05-07 16:31 36.95248 -76.59795 26965 ft 261 kts 272°
2026-05-07 16:32 36.95612 -76.62125 26975 ft 284 kts 273°
2026-05-07 16:32 36.96007 -76.64615 27144 ft 300 kts 273°
2026-05-07 16:32 36.96424 -76.67225 27457 ft 312 kts 273°
2026-05-07 16:32 36.96852 -76.69894 28037 ft 315 kts 273°
2026-05-07 16:33 36.97287 -76.72595 28695 ft 316 kts 273°
2026-05-07 16:33 36.97716 -76.75272 29369 ft 316 kts 273°
2026-05-07 16:33 36.98168 -76.78001 29825 ft 324 kts 275°
2026-05-07 16:33 36.98792 -76.80775 29935 ft 341 kts 278°
2026-05-07 16:34 36.99493 -76.83711 29938 ft 356 kts 277°
2026-05-07 16:34 37.00206 -76.86706 29929 ft 371 kts 278°
2026-05-07 16:34 37.00964 -76.89889 29932 ft 384 kts 278°
2026-05-07 16:34 37.01733 -76.93117 29931 ft 395 kts 278°
2026-05-07 16:35 37.02534 -76.96478 29931 ft 405 kts 279°
2026-05-07 16:35 37.04168 -77.03340 29936 ft 418 kts 278°
2026-05-07 16:36 37.05671 -77.10387 29932 ft 417 kts 275°
2026-05-07 16:36 37.06922 -77.17419 29928 ft 412 kts 276°
2026-05-07 16:37 37.08161 -77.24398 29926 ft 409 kts 276°
2026-05-07 16:37 37.09392 -77.31362 29929 ft 408 kts 275°
2026-05-07 16:38 37.10610 -77.38285 29928 ft 406 kts 276°
2026-05-07 16:38 37.11824 -77.45202 29928 ft 404 kts 276°
2026-05-07 16:39 37.13028 -77.52091 29930 ft 403 kts 276°
2026-05-07 16:39 37.14221 -77.58942 29929 ft 401 kts 275°
2026-05-07 16:40 37.15404 -77.65765 29916 ft 401 kts 275°
2026-05-07 16:40 37.16592 -77.72637 29922 ft 400 kts 275°
2026-05-07 16:41 37.17863 -77.79427 29913 ft 404 kts 281°
2026-05-07 16:41 37.19130 -77.82613 29915 ft 418 kts 292°
2026-05-07 16:41 37.20824 -77.85651 29912 ft 421 kts 295°
2026-05-07 16:42 37.24183 -77.91599 29911 ft 420 kts 294°
2026-05-07 16:42 37.27560 -77.97597 29915 ft 419 kts 294°
2026-05-07 16:43 37.30904 -78.03546 29911 ft 416 kts 294°
2026-05-07 16:43 37.34206 -78.09422 29909 ft 405 kts 294°
2026-05-07 16:44 37.37430 -78.15181 29912 ft 401 kts 293°
2026-05-07 16:44 37.40637 -78.20927 29909 ft 400 kts 294°
2026-05-07 16:45 37.43830 -78.26656 29913 ft 399 kts 294°
2026-05-07 16:45 37.47001 -78.32359 29916 ft 400 kts 294°
2026-05-07 16:46 37.50218 -78.38150 29913 ft 400 kts 293°
2026-05-07 16:46 37.53421 -78.43926 29924 ft 401 kts 294°
2026-05-07 16:46 37.55018 -78.46817 30104 ft 404 kts 293°
2026-05-07 16:47 37.56086 -78.48744 30420 ft 401 kts 293°
2026-05-07 16:47 37.58209 -78.52573 31125 ft 395 kts 294°
2026-05-07 16:47 37.59780 -78.55415 31486 ft 394 kts 293°
2026-05-07 16:47 37.61345 -78.58253 31787 ft 393 kts 293°
2026-05-07 16:48 37.62912 -78.61097 31968 ft 396 kts 292°
2026-05-07 16:48 37.64479 -78.63947 32120 ft 398 kts 293°
2026-05-07 16:48 37.66071 -78.66838 32322 ft 399 kts 292°
2026-05-07 16:48 37.67648 -78.69705 32592 ft 398 kts 292°
2026-05-07 16:49 37.69220 -78.72566 32790 ft 399 kts 292°
2026-05-07 16:49 37.70816 -78.75472 33035 ft 398 kts 292°
2026-05-07 16:49 37.71862 -78.77377 33165 ft 398 kts 292°
2026-05-07 16:49 37.73970 -78.81225 33360 ft 399 kts 292°
2026-05-07 16:50 37.75553 -78.84116 33488 ft 400 kts 292°
2026-05-07 16:50 37.77163 -78.87059 33595 ft 402 kts 292°
2026-05-07 16:50 37.78744 -78.89949 33796 ft 400 kts 292°
2026-05-07 16:50 37.80324 -78.92831 34286 ft 393 kts 292°
2026-05-07 16:51 37.81864 -78.95644 34780 ft 386 kts 292°
2026-05-07 16:51 37.83382 -78.98421 35236 ft 381 kts 292°
2026-05-07 16:51 37.84883 -79.01170 35678 ft 377 kts 291°
2026-05-07 16:51 37.86364 -79.03890 36009 ft 375 kts 291°
2026-05-07 16:52 37.87844 -79.06615 36276 ft 374 kts 292°
2026-05-07 16:52 37.89223 -79.09390 36588 ft 364 kts 287°
2026-05-07 16:52 37.90220 -79.12241 36840 ft 353 kts 280°
2026-05-07 16:52 37.90877 -79.15218 37022 ft 347 kts 275°
2026-05-07 16:53 37.91407 -79.18186 37187 ft 348 kts 275°
2026-05-07 16:53 37.91940 -79.21152 37440 ft 347 kts 275°
2026-05-07 16:53 37.92477 -79.24149 37649 ft 346 kts 276°
2026-05-07 16:53 37.93012 -79.27129 37854 ft 346 kts 275°
2026-05-07 16:54 37.93539 -79.30080 38039 ft 345 kts 276°
2026-05-07 16:54 37.94076 -79.33084 38230 ft 345 kts 275°
2026-05-07 16:54 37.94602 -79.36029 38365 ft 345 kts 275°
2026-05-07 16:54 37.95131 -79.39002 38515 ft 345 kts 276°
2026-05-07 16:55 37.95662 -79.41983 38695 ft 345 kts 276°
2026-05-07 16:55 37.96188 -79.44942 38848 ft 345 kts 276°
2026-05-07 16:55 37.96709 -79.47877 39012 ft 344 kts 275°
2026-05-07 16:55 37.97234 -79.50841 39172 ft 344 kts 275°
2026-05-07 16:56 37.97757 -79.53793 39317 ft 343 kts 275°
2026-05-07 16:56 37.98281 -79.56761 39432 ft 344 kts 275°
2026-05-07 16:56 37.99327 -79.62700 39632 ft 345 kts 275°
2026-05-07 16:57 37.99845 -79.65646 39742 ft 345 kts 275°
2026-05-07 16:57 38.00371 -79.68638 39803 ft 347 kts 275°
2026-05-07 16:57 38.01427 -79.74676 39864 ft 353 kts 275°
2026-05-07 16:58 38.02494 -79.80788 39907 ft 357 kts 275°
2026-05-07 16:58 38.03569 -79.86960 39909 ft 357 kts 275°
2026-05-07 16:59 38.04638 -79.93108 39935 ft 356 kts 275°
2026-05-07 16:59 38.05704 -79.99269 39906 ft 356 kts 275°
2026-05-07 17:00 38.06764 -80.05408 39904 ft 356 kts 275°
2026-05-07 17:00 38.07819 -80.11547 39922 ft 357 kts 275°
2026-05-07 17:01 38.08879 -80.17737 39919 ft 357 kts 275°
2026-05-07 17:01 38.09940 -80.23948 39901 ft 360 kts 275°
2026-05-07 17:02 38.10997 -80.30160 39931 ft 359 kts 275°
2026-05-07 17:02 38.12053 -80.36387 39919 ft 360 kts 275°
2026-05-07 17:03 38.13105 -80.42610 39918 ft 361 kts 275°
2026-05-07 17:03 38.14157 -80.48850 39935 ft 362 kts 275°
2026-05-07 17:04 38.15208 -80.55117 39929 ft 363 kts 276°
2026-05-07 17:04 38.16260 -80.61401 39934 ft 364 kts 276°
2026-05-07 17:05 38.17314 -80.67722 39939 ft 366 kts 276°
2026-05-07 17:05 38.18368 -80.74066 39946 ft 367 kts 275°
2026-05-07 17:06 38.19422 -80.80431 39943 ft 366 kts 276°
2026-05-07 17:06 38.20469 -80.86777 39931 ft 367 kts 275°
2026-05-07 17:07 38.21513 -80.93127 39947 ft 368 kts 275°
2026-05-07 17:07 38.22565 -80.99549 39932 ft 371 kts 275°
2026-05-07 17:08 38.23611 -81.05959 39949 ft 371 kts 275°
2026-05-07 17:08 38.24662 -81.12409 39945 ft 373 kts 276°
2026-05-07 17:09 38.26260 -81.18780 39943 ft 382 kts 285°
2026-05-07 17:09 38.28931 -81.24731 39957 ft 396 kts 295°
2026-05-07 17:10 38.32726 -81.30042 39945 ft 415 kts 307°
2026-05-07 17:10 38.35027 -81.32311 39956 ft 427 kts 313°
2026-05-07 17:10 38.37624 -81.34265 39949 ft 441 kts 320°
2026-05-07 17:11 38.40481 -81.35781 39955 ft 456 kts 328°
2026-05-07 17:11 38.43567 -81.36978 39959 ft 461 kts 329°
2026-05-07 17:11 38.49768 -81.39319 39958 ft 462 kts 330°
2026-05-07 17:12 38.55941 -81.41657 39961 ft 461 kts 330°
2026-05-07 17:12 38.62101 -81.43996 39975 ft 459 kts 330°
2026-05-07 17:13 38.68259 -81.46343 39947 ft 461 kts 330°
2026-05-07 17:13 38.74453 -81.48706 39971 ft 460 kts 330°
2026-05-07 17:14 38.80582 -81.51054 39949 ft 463 kts 330°
2026-05-07 17:14 38.86761 -81.53423 39955 ft 463 kts 330°
2026-05-07 17:15 38.92979 -81.55811 39959 ft 464 kts 330°
2026-05-07 17:15 38.99154 -81.58188 39952 ft 465 kts 331°
2026-05-07 17:16 39.05383 -81.60589 39958 ft 464 kts 331°
2026-05-07 17:16 39.11586 -81.62985 39953 ft 464 kts 331°
2026-05-07 17:17 39.17766 -81.65378 39957 ft 466 kts 330°
2026-05-07 17:17 39.23976 -81.67786 39968 ft 466 kts 330°
2026-05-07 17:18 39.30178 -81.70194 39966 ft 465 kts 330°
2026-05-07 17:18 39.36397 -81.72616 39965 ft 465 kts 331°
2026-05-07 17:19 39.42570 -81.75023 39967 ft 464 kts 331°
2026-05-07 17:19 39.48732 -81.77432 39966 ft 465 kts 331°
2026-05-07 17:20 39.54958 -81.79871 39962 ft 466 kts 331°
2026-05-07 17:20 39.61183 -81.82312 39956 ft 466 kts 331°
2026-05-07 17:21 39.67370 -81.84743 39972 ft 466 kts 331°
2026-05-07 17:21 39.73759 -81.86718 39964 ft 482 kts 340°
2026-05-07 17:22 39.80420 -81.87891 39965 ft 483 kts 340°
2026-05-07 17:22 39.87066 -81.89067 39973 ft 482 kts 341°
2026-05-07 17:23 39.93716 -81.90250 39969 ft 483 kts 341°
2026-05-07 17:23 40.00400 -81.91442 39960 ft 484 kts 341°
2026-05-07 17:24 40.07091 -81.92638 39955 ft 484 kts 341°
2026-05-07 17:24 40.13777 -81.93838 39951 ft 485 kts 341°
2026-05-07 17:25 40.20473 -81.95041 39939 ft 485 kts 341°
2026-05-07 17:25 40.27170 -81.96248 39944 ft 485 kts 341°
2026-05-07 17:26 40.33841 -81.97453 39949 ft 485 kts 341°
2026-05-07 17:26 40.40413 -81.98642 39948 ft 485 kts 341°
2026-05-07 17:27 40.46587 -81.99751 39951 ft 469 kts 341°
2026-05-07 17:27 40.49771 -82.00321 39948 ft 458 kts 341°
2026-05-07 17:27 40.52912 -82.00890 39949 ft 453 kts 340°
2026-05-07 17:28 40.59010 -82.02618 39369 ft 448 kts 334°
2026-05-07 17:28 40.61997 -82.03646 38832 ft 446 kts 334°
2026-05-07 17:28 40.65021 -82.04681 38259 ft 443 kts 334°
2026-05-07 17:29 40.68015 -82.05708 37713 ft 441 kts 334°
2026-05-07 17:29 40.70978 -82.06726 37099 ft 441 kts 333°
2026-05-07 17:29 40.73910 -82.07732 36528 ft 439 kts 333°
2026-05-07 17:29 40.76864 -82.08746 35941 ft 437 kts 333°
2026-05-07 17:30 40.78858 -82.09431 35548 ft 436 kts 333°
2026-05-07 17:30 40.82725 -82.10762 34787 ft 434 kts 333°
2026-05-07 17:30 40.85664 -82.11775 34214 ft 434 kts 333°
2026-05-07 17:30 40.88614 -82.12794 33639 ft 437 kts 333°
2026-05-07 17:31 40.91573 -82.13821 33054 ft 443 kts 333°
2026-05-07 17:31 40.94538 -82.14844 32453 ft 442 kts 333°
2026-05-07 17:31 40.97517 -82.15865 31882 ft 438 kts 333°
2026-05-07 17:31 41.00446 -82.16872 31257 ft 434 kts 333°
2026-05-07 17:32 41.03350 -82.17868 30719 ft 427 kts 333°
2026-05-07 17:32 41.06188 -82.18845 30142 ft 422 kts 333°
2026-05-07 17:32 41.09036 -82.19824 29592 ft 415 kts 333°
2026-05-07 17:32 41.11805 -82.20781 29040 ft 410 kts 333°
2026-05-07 17:33 41.14574 -82.21744 28509 ft 408 kts 332°
2026-05-07 17:33 41.17338 -82.22704 27957 ft 406 kts 333°
2026-05-07 17:33 41.20052 -82.23646 27436 ft 403 kts 333°
2026-05-07 17:33 41.22637 -82.24887 26888 ft 382 kts 320°
2026-05-07 17:34 41.24752 -82.26800 26488 ft 362 kts 311°
2026-05-07 17:34 41.26748 -82.28899 26164 ft 361 kts 310°
2026-05-07 17:34 41.28721 -82.30968 25793 ft 363 kts 310°
2026-05-07 17:34 41.30711 -82.33052 25438 ft 362 kts 311°
2026-05-07 17:35 41.32675 -82.35111 25060 ft 360 kts 311°
2026-05-07 17:35 41.34642 -82.37174 24703 ft 358 kts 311°
2026-05-07 17:35 41.36602 -82.39233 24334 ft 357 kts 311°
2026-05-07 17:35 41.38543 -82.41271 23980 ft 355 kts 311°
2026-05-07 17:36 41.40487 -82.43316 23643 ft 354 kts 311°
2026-05-07 17:36 41.42433 -82.45366 23236 ft 354 kts 311°
2026-05-07 17:36 41.44341 -82.47375 22893 ft 352 kts 312°
2026-05-07 17:36 41.46274 -82.49413 22554 ft 350 kts 312°
2026-05-07 17:37 41.48182 -82.51427 22180 ft 350 kts 312°
2026-05-07 17:37 41.50074 -82.53426 21848 ft 348 kts 313°
2026-05-07 17:37 41.51971 -82.55431 21496 ft 348 kts 313°
2026-05-07 17:37 41.53861 -82.57431 21132 ft 347 kts 313°
2026-05-07 17:38 41.55759 -82.59441 20782 ft 347 kts 313°
2026-05-07 17:38 41.57644 -82.61439 20422 ft 346 kts 314°
2026-05-07 17:38 41.59504 -82.63409 20086 ft 345 kts 314°
2026-05-07 17:38 41.61388 -82.65410 19738 ft 343 kts 313°
2026-05-07 17:39 41.63247 -82.67384 19395 ft 343 kts 314°
2026-05-07 17:39 41.65111 -82.69366 19044 ft 342 kts 314°
2026-05-07 17:39 41.66980 -82.71352 18685 ft 340 kts 314°
2026-05-07 17:39 41.68814 -82.73305 18365 ft 340 kts 314°
2026-05-07 17:40 41.70664 -82.75275 18023 ft 338 kts 314°
2026-05-07 17:40 41.72490 -82.77222 17671 ft 336 kts 314°
2026-05-07 17:40 41.74321 -82.79175 17339 ft 334 kts 314°
2026-05-07 17:40 41.75973 -82.81304 17002 ft 327 kts 307°
2026-05-07 17:41 41.77498 -82.83548 16679 ft 327 kts 306°
2026-05-07 17:41 41.79030 -82.85797 16339 ft 327 kts 307°
2026-05-07 17:41 41.80563 -82.88047 16006 ft 325 kts 307°
2026-05-07 17:41 41.82075 -82.90268 15686 ft 325 kts 307°
2026-05-07 17:42 41.83611 -82.92523 15351 ft 323 kts 307°
2026-05-07 17:42 41.85127 -82.94751 15014 ft 322 kts 307°
2026-05-07 17:42 41.86637 -82.96970 14725 ft 320 kts 307°
2026-05-07 17:42 41.88123 -82.99157 14397 ft 319 kts 307°
2026-05-07 17:43 41.89625 -83.01383 14059 ft 317 kts 307°
2026-05-07 17:43 41.91098 -83.03569 13749 ft 315 kts 307°
2026-05-07 17:43 41.92565 -83.05748 13430 ft 314 kts 307°
2026-05-07 17:43 41.94040 -83.07940 13096 ft 312 kts 307°
2026-05-07 17:44 41.95492 -83.10099 12782 ft 310 kts 308°
2026-05-07 17:44 41.96932 -83.12240 12459 ft 304 kts 308°
2026-05-07 17:44 41.98334 -83.14322 12167 ft 292 kts 308°
2026-05-07 17:44 41.99671 -83.16311 11873 ft 282 kts 308°
2026-05-07 17:45 42.00972 -83.18246 11606 ft 272 kts 308°
2026-05-07 17:45 42.02203 -83.20082 11335 ft 265 kts 308°
2026-05-07 17:45 42.03434 -83.21919 11062 ft 265 kts 308°
2026-05-07 17:45 42.04689 -83.23772 10797 ft 264 kts 309°
2026-05-07 17:46 42.05938 -83.25585 10558 ft 262 kts 311°
2026-05-07 17:46 42.07398 -83.27078 10327 ft 269 kts 328°
2026-05-07 17:46 42.09198 -83.27825 10045 ft 274 kts 349°
2026-05-07 17:46 42.11144 -83.27608 9744 ft 283 kts 11°
2026-05-07 17:47 42.12915 -83.26475 9424 ft 284 kts 26°
2026-05-07 17:47 42.14598 -83.25140 9215 ft 274 kts 25°
2026-05-07 17:47 42.16240 -83.23853 8964 ft 267 kts 25°
2026-05-07 17:47 42.17826 -83.22611 8737 ft 259 kts 25°
2026-05-07 17:48 42.19373 -83.21398 8507 ft 252 kts 26°
2026-05-07 17:48 42.20891 -83.20208 8290 ft 246 kts 25°
2026-05-07 17:48 42.22350 -83.19064 8071 ft 240 kts 25°
2026-05-07 17:48 42.23853 -83.17932 7855 ft 239 kts 23°
2026-05-07 17:49 42.25314 -83.16856 7608 ft 236 kts 24°
2026-05-07 17:49 42.26743 -83.15803 7309 ft 237 kts 24°
2026-05-07 17:49 42.28194 -83.14732 7043 ft 236 kts 24°
2026-05-07 17:49 42.29657 -83.13653 6782 ft 236 kts 24°
2026-05-07 17:50 42.31102 -83.12585 6526 ft 236 kts 24°
2026-05-07 17:50 42.32558 -83.11510 6262 ft 235 kts 24°
2026-05-07 17:50 42.34044 -83.10729 6008 ft 228 kts
2026-05-07 17:50 42.35609 -83.10664 5768 ft 221 kts 348°
2026-05-07 17:51 42.37048 -83.11286 5522 ft 213 kts 329°
2026-05-07 17:51 42.38209 -83.12458 5286 ft 196 kts 311°
2026-05-07 17:51 42.38976 -83.13899 5076 ft 187 kts 296°
2026-05-07 17:51 42.39408 -83.15559 4867 ft 185 kts 281°
2026-05-07 17:52 42.39482 -83.17278 4665 ft 185 kts 267°
2026-05-07 17:52 42.39191 -83.18984 4464 ft 185 kts 252°
2026-05-07 17:52 42.38535 -83.20552 4253 ft 189 kts 236°
2026-05-07 17:52 42.37587 -83.21781 4041 ft 193 kts 220°
2026-05-07 17:53 42.36409 -83.22715 3829 ft 194 kts 214°
2026-05-07 17:53 42.35241 -83.23585 3583 ft 194 kts 214°
2026-05-07 17:53 42.34047 -83.24477 3294 ft 195 kts 214°
2026-05-07 17:53 42.32861 -83.25362 3045 ft 189 kts 214°
2026-05-07 17:54 42.31690 -83.26183 2975 ft 188 kts 213°
2026-05-07 17:54 42.30598 -83.26994 2762 ft 172 kts 214°
2026-05-07 17:54 42.29596 -83.27738 2530 ft 156 kts 215°
2026-05-07 17:54 42.28691 -83.28456 2325 ft 147 kts 220°
2026-05-07 17:55 42.27854 -83.29105 2166 ft 127 kts 215°
2026-05-07 17:55 42.27060 -83.29670 1911 ft 124 kts 217°
2026-05-07 17:55 42.26320 -83.30207 1718 ft 118 kts 218°
2026-05-07 17:55 42.25589 -83.30740 1532 ft 118 kts 217°
2026-05-07 17:56 42.24879 -83.31260 1383 ft 116 kts 217°
2026-05-07 17:56 42.24158 -83.31784 1192 ft 115 kts 218°
2026-05-07 17:56 42.23451 -83.32313 1010 ft 117 kts 217°
2026-05-07 17:56 42.22749 -83.32838 827 ft 117 kts 216°
2026-05-07 17:57 42.22031 -83.33361 664 ft 117 kts 215°
2026-05-07 17:57 42.21582 -83.33685 635 ft 99 kts 214°
2026-05-07 17:57 42.20976 -83.34139 634 ft 39 kts 212°
2026-05-07 17:57 42.20760 -83.34302 634 ft 35 kts 210°
2026-05-07 17:58 42.20587 -83.34522 634 ft 33 kts 238°
2026-05-07 17:58 42.20541 -83.34626 634 ft 0 kts 238°
2026-05-07 17:59 42.20541 -83.34627 634 ft 0 kts 238°
2026-05-07 18:00 42.20540 -83.34663 634 ft 12 kts 313°
2026-05-07 18:00 42.20658 -83.34634 634 ft 24 kts 33°
2026-05-07 18:00 42.20835 -83.34497 634 ft 34 kts 27°
2026-05-07 18:00 42.21075 -83.34319 634 ft 43 kts 30°
2026-05-07 18:01 42.21351 -83.34116 634 ft 47 kts 29°
2026-05-07 18:01 42.21561 -83.33940 634 ft 13 kts 84°
2026-05-07 18:01 42.21511 -83.33810 634 ft 17 kts 115°
2026-05-07 18:01 42.21448 -83.33647 633 ft 22 kts 120°
2026-05-07 18:02 42.21289 -83.33544 631 ft 15 kts 118°
2026-05-07 18:02 42.21206 -83.33375 631 ft 28 kts 147°
2026-05-07 18:02 42.21162 -83.33195 631 ft 0 kts 70°